Content
SEND FEEDBACK

Daily
Averages
Monthly
Summary
South Korea

KASI-RI, SOUTH KOREA


Home > Asia > South Korea
Elevation: 174 feet     Latitude: 33 14N     Longitude: 126 34E

WEATHER
 
SELECT A DAY
Number of Records: 161,298;   Date Range: 7/1/96 - 9/28/14
 
SHARE

PRINT THIS DATA

[ ← Previous Day ]
WEATHER ALMANAC - JANUARY 3, 2013
[ Next Day → ]
[ °C ]   °F
Weather ElementAverageHighLow
Temperature31.9 °F33.8 °F (3:00 pm)30.2 °F (9:00 am)
Dewpoint17.9 °F21.2 °F (11:00 am)15.8 °F (1:00 am)
Humidity56.2 %64 % (9:00 am)51 % (1:00 am)
Barometer30.59 in30.63 in (9:00 am)30.57 in (1:00 am)
Wind Speed11 mph15 mph (8:00 am)
Weather ElementAverage
Visibility6 mi
Wind DirectionWNW (280 °)

Weather ElementTotal
Precipitation---
Heating Degree Days33 (Base 65)
Averaged from 23 records on January 3, 2013
WEATHER CONDITIONS BREAKOUT
WIND DIRECTION BREAKOUT
WEATHER BY HOUR - JANUARY 3, 2013
[ °C ]   °F
Local TimeTemperatureDewpointHumidityBarometerVisibilityWind DirectionWind SpeedGust SpeedPrecipitationEventsConditions
1:00 AM32.0 °F15.8 °F51 %30.57 in6.2 miNorth (10°)12.7 mphMostly Cloudy
2:00 AM32.0 °F17.6 °F55 %30.60 in6.2 miNorth (10°)10.4 mphMostly Cloudy
3:00 AM32.0 °F17.6 °F55 %30.60 in6.2 miNorth (350°)11.5 mphMostly Cloudy
4:00 AM32.0 °F15.8 °F51 %30.57 in6.2 miNorth (350°)13.8 mphMostly Cloudy
5:00 AM32.0 °F17.6 °F55 %30.57 in6.2 miNorth (360°)12.7 mphMostly Cloudy
6:00 AM32.0 °F17.6 °F55 %30.57 in6.2 miNorth (350°)12.7 mphMostly Cloudy
7:00 AM32.0 °F19.4 °F60 %30.60 in6.2 miNorth (360°)13.8 mphMostly Cloudy
8:00 AM32.0 °F17.6 °F55 %30.60 in6.2 miNorth (360°)15.0 mphMostly Cloudy
9:00 AM30.2 °F19.4 °F64 %30.63 in6.2 miNorth (360°)10.4 mphMostly Cloudy
10:00 AM30.2 °F19.4 °F64 %30.63 in5.0 miNorth (360°)12.7 mphSnowLight Snow Showers
11:00 AM32.0 °F21.2 °F64 %30.63 in3.7 miNorth (360°)10.4 mphSnowLight Snow Showers
12:00 PM32.0 °F19.4 °F60 %30.63 in6.2 miNNW (340°)10.4 mphMostly Cloudy
1:00 PM32.0 °F17.6 °F55 %30.60 in6.2 miNorth (350°)11.5 mphMostly Cloudy
2:00 PM32.0 °F19.4 °F60 %30.57 in6.2 miNorth (360°)10.4 mphMostly Cloudy
3:00 PM33.8 °F19.4 °F56 %30.57 in6.2 miNorth (360°)9.2 mphMostly Cloudy
4:00 PM32.0 °F17.6 °F55 %30.57 in6.2 miNorth (360°)10.4 mphMostly Cloudy
5:00 PM32.0 °F17.6 °F55 %30.57 in6.2 miNorth (10°)12.7 mphMostly Cloudy
6:00 PM32.0 °F15.8 °F51 %30.57 in6.2 miNorth (360°)8.1 mphMostly Cloudy
7:00 PM32.0 °F17.6 °F55 %30.57 in6.2 miNNE (20°)6.9 mphMostly Cloudy
8:00 PM32.0 °F17.6 °F55 %30.57 in6.2 miNorth (10°)8.1 mphMostly Cloudy
9:00 PM32.0 °F15.8 °F51 %30.57 in6.2 miNNW (340°)9.2 mphMostly Cloudy
10:00 PM32.0 °F17.6 °F55 %30.57 in6.2 miNorth (350°)10.4 mphMostly Cloudy
11:00 PM32.0 °F17.6 °F55 %30.57 in6.2 miNorth (350°)10.4 mphMostly Cloudy
Hourly data recorded from RKPC, located miles away from Kasi-ri, South Korea







STORIES FROM OUR PARTNERS